Home   Weather   Post Falls   Past weeks

Flag for USA Past Weather in Post Falls, Idaho, USA — Yesterday and Last 2 Weeks

Now
32 °F

Clear.


Feels Like: 29 °F
Forecast: 31 / 40 °F
Wind: 3 mph from Southeast

Location: Coeur d'Alene Weather Reporting System

Current Time: Feb 19, 2017 at 7:59:37 pm

Latest Report: Feb 19, 2017 at 6:56 pm


Visibility: 10 mi

Pressure: 29.76 "Hg (27.39 "Hg at 664m altitude)

Humidity: 96%

Dew Point: 31 °F

Location of Post FallsLocation

Past Weather in Post Falls — Graph

°F

Post Falls Temperature Yesterday

Maximum temperature yesterday: 36 °F (at 10:56 am)
Minimum temperature yesterday: 32 °F (at 10:33 pm)
Average temperature yesterday: 35 °F

High & Low Weather Summary for the Past Weeks

 TemperatureHumidityPressure
High45 °F (Feb 9, 2:56 pm)100% (Feb 5, 6:24 pm)30.68 "Hg (Feb 5, 6:24 pm)
Low12 °F (Feb 12, 7:02 am)55% (Feb 13, 4:56 pm)29.23 "Hg (Feb 6, 2:56 am)
Average32 °F87%29.89 "Hg
* Reported Feb 4 6:56 pm — Feb 19 6:56 pm, Post Falls, Weather by CustomWeather, © 2017

Note: Actual official high and low records may vary slightly from our data, if they occured in-between our weather recording intervals... More about our weather records

Advertising

Post Falls Weather History for the Previous 24 Hours

Scroll right to see more
 ConditionsComfort  
Time TempWeatherWind HumidityBarometerVisibility
6:56 pm
Sun, Feb 19
32 °FClear.3 mph96%29.76 "Hg10 mi
6:31 pm34 °FPassing clouds.5 mph93%29.65 "Hg10 mi
6:10 pm34 °FPassing clouds.3 mph93%29.65 "Hg10 mi
5:56 pm36 °FPassing clouds.No wind92%29.75 "Hg10 mi
5:32 pm37 °FPassing clouds.5 mph87%29.63 "Hg10 mi
4:56 pm36 °FMostly cloudy.5 mph89%29.72 "Hg10 mi
3:56 pm37 °FCloudy.16 mph86%29.70 "Hg10 mi
3:38 pm37 °FMostly cloudy.7 mph87%29.59 "Hg10 mi
2:56 pm37 °FOvercast.No wind93%29.67 "Hg10 mi
1:56 pm37 °FLight rain. Fog.6 mph93%29.65 "Hg6 mi
12:56 pm37 °FPartly sunny.6 mph89%29.63 "Hg10 mi
11:56 am39 °FOvercast.3 mph86%29.65 "Hg10 mi
10:56 am40 °FOvercast.3 mph86%29.65 "Hg10 mi
10:28 am37 °FLow clouds.7 mph87%29.55 "Hg10 mi
9:56 am36 °FMostly cloudy.3 mph92%29.64 "Hg10 mi
8:56 am33 °FLight snow. Fog.5 mph96%29.62 "Hg3 mi
8:19 am34 °FLight rain. Fog.3 mph100%29.51 "Hg2 mi
7:56 am34 °FLight rain. Overcast.No wind97%29.60 "Hg7 mi
6:56 am33 °FLight rain. Overcast.No wind96%29.59 "Hg10 mi
5:56 am32 °FOvercast.3 mph96%29.58 "Hg10 mi
4:56 am33 °FOvercast.No wind96%29.57 "Hg10 mi
3:56 am34 °FOvercast.3 mph97%29.57 "Hg10 mi
2:56 am34 °FOvercast.No wind97%29.57 "Hg10 mi
1:56 am33 °FOvercast.7 mph100%29.58 "Hg10 mi
1:27 am34 °FLow clouds.7 mph93%29.48 "Hg10 mi
12:56 am33 °FMostly cloudy.3 mph96%29.57 "Hg10 mi
11:56 pm
Sat, Feb 18
33 °FLight rain. Low clouds.No wind96%29.56 "Hg10 mi
11:10 pm32 °FLight snow. Low clouds.3 mph93%29.46 "Hg7 mi
10:56 pm32 °FLight snow. Ice fog.No wind96%29.56 "Hg5 mi
10:33 pm32 °FLight snow. Ice fog.No wind93%29.46 "Hg2 mi
10:09 pm34 °FLight snow. Fog.5 mph93%29.45 "Hg2 mi
9:43 pm34 °FLight snow. Fog.No wind93%29.45 "Hg3 mi
8:56 pm34 °FLight rain. Mostly cloudy.5 mph92%29.53 "Hg10 mi
7:56 pm35 °FLight rain. Low clouds.8 mph96%29.52 "Hg10 mi
7:37 pm36 °FLight rain. Fog.6 mph93%29.42 "Hg3 mi
7:21 pm34 °FLight rain. Fog.No wind100%29.41 "Hg1 mi
Weather by CustomWeather, © 2017

See weather overviewHow to use our weather pages